This is the latest recevied weather packets stored in our database for station/object VE6KEE-13. If no packets are shown the sender has not sent any weather packets the latest 10 day(s).
| Time | Temp. | Humidity | Pressure | Rain* | Wind** | Luminosity | Snow |
|---|---|---|---|---|---|---|---|
| 1777943104 | 11.11° C | 27% | 1018.8 hPa | 0 mm | - | - | - |
| 1777942199 | 11.67° C | 26% | 1018.7 hPa | 0 mm | - | - | - |
| 1777941299 | 12.22° C | 26% | 1018.7 hPa | 0 mm | - | - | - |
| 1777940399 | 12.78° C | 25% | 1018.7 hPa | 0 mm | - | - | - |
| 1777939499 | 12.78° C | 24% | 1018.6 hPa | 0 mm | - | - | - |
| 1777938594 | 13.33° C | 24% | 1018.7 hPa | 0 mm | - | - | - |
| 1777937699 | 14.44° C | 23% | 1018.5 hPa | 0 mm | - | - | - |
| 1777936793 | 15° C | 23% | 1018.4 hPa | 0 mm | - | - | - |
| 1777935893 | 15.56° C | 22% | 1018.2 hPa | 0 mm | - | - | - |
| 1777934993 | 16.11° C | 21% | 1018.1 hPa | 0 mm | - | - | - |
| 1777934093 | 17.22° C | 20% | 1018 hPa | 0 mm | - | - | - |
| 1777933193 | 17.78° C | 19% | 1017.9 hPa | 0 mm | - | - | - |
| 1777932293 | 18.33° C | 19% | 1017.9 hPa | 0 mm | - | - | - |
| 1777931388 | 18.89° C | 18% | 1017.7 hPa | 0 mm | - | - | - |
| 1777930488 | 18.89° C | 18% | 1017.7 hPa | 0 mm | - | - | - |
| 1777929588 | 18.89° C | 18% | 1017.6 hPa | 0 mm | - | - | - |
| 1777928687 | 18.89° C | 18% | 1017.5 hPa | 0 mm | - | - | - |
| 1777927787 | 18.33° C | 18% | 1017.7 hPa | 0 mm | - | - | - |
| 1777926892 | 18.33° C | 18% | 1017.5 hPa | 0 mm | - | - | - |
| 1777925987 | 18.33° C | 19% | 1017.6 hPa | 0 mm | - | - | - |
| 1777925087 | 17.78° C | 19% | 1017.5 hPa | 0 mm | - | - | - |
| 1777924182 | 17.22° C | 20% | 1017.4 hPa | 0 mm | - | - | - |
| 1777923282 | 17.78° C | 19% | 1017.3 hPa | 0 mm | - | - | - |
| 1777922382 | 17.78° C | 20% | 1017.5 hPa | 0 mm | - | - | - |
| 1777921487 | 16.67° C | 21% | 1017.5 hPa | 0 mm | - | - | - |
* Rain since midnight (hover to see other rain measurements)
** Current wind speed in m/s (hover to see current wind gust speed)